Weather Roundup
Issued by NWS Corpus Christi, TX

Home | Current Version | Previous Version | Text Only | Print | Product List | Glossary On
Versions: 1 2 3 4 5 6 7 8 9 10 11 12 13 14 15 16 17 18 19 20 21 22 23 24 25 26 27 28 29 30 31 32 33 34 35 36 37 38 39 40 41 42 43 44 45 46 47 48 49 50
482
ASUS44 KCRP 082310
HRRCRP

SOUTH TEXAS REGIONAL WEATHER ROUNDUP
NATIONAL WEATHER SERVICE CORPUS CHRISTI TX
500 PM CST THU DEC 08 2016


TXZ229>244-090000-
...CORPUS CHRISTI AREA OBSERVATIONS...

CITY           SKY/WX    TMP DP  RH WIND       PRES   REMARKS
CORPUS CHRISTI DRIZZLE   43  39  86 N24G32    30.45R
NAS CORPUS CHR CLOUDY    44  42  93 N26G33    30.42R
ROCKPORT         N/A    N/A N/A N/A MISG      30.44R
KINGSVILLE NAS LGT RAIN  43  42  97 N22G29    30.45R FOG
ALICE            N/A     42  39  89 MISG      30.46R
ORANGE GROVE   CLOUDY    42  40  92 N21       30.47R
FALFURRIAS     CLOUDY    44  40  86 N17G24    30.45R
$$

...VICTORIA AREA OBSERVATIONS...

CITY           SKY/WX    TMP DP  RH WIND       PRES   REMARKS
VICTORIA       CLOUDY    46  36  68 N18       30.46R
BEEVILLE       CLOUDY    42  40  91 N12G17    30.48R
PLEASANTON     CLOUDY    44  30  57 N12G17    30.52R
SAN ANTONIO    CLOUDY    41  25  53 N16G26    30.52R
$$

...LAREDO AREA OBSERVATIONS...

CITY           SKY/WX    TMP DP  RH WIND       PRES   REMARKS
LAREDO         CLOUDY    46  37  71 N14       30.49R
COTULLA        CLOUDY    47  30  51 N12       30.51R
DEL RIO        CLOUDY    42  28  57 N13       30.55R
MCALLEN        CLOUDY    47  42  83 N24G33    30.43R
HEBBRONVILLE   CLOUDY    42  38  88 N12G17    30.46R
$$

...OTHER TEXAS OBSERVATIONS...

CITY           SKY/WX    TMP DP  RH WIND       PRES   REMARKS
BROWNSVILLE    CLOUDY    47  43  86 NW22G36   30.35R
HOUSTON        CLOUDY    45  32  60 N18       30.45R
COL. STATION   CLOUDY    41  27  57 N15       30.53R
AUSTIN         CLOUDY    41  24  51 N17G28    30.53R
WACO           CLOUDY    35  22  58 N15       30.60R WCI  25
FORT WORTH     MOCLDY    35  14  42 N15       30.60S WCI  25
WICHITA FALLS  CLEAR     32  10  40 N12       30.64F WCI  23
LUBBOCK        CLOUDY    29  13  51 NE6       30.53R
EL PASO        PTSUNNY   40  25  55 E13       30.36S WCI  32
$$

...MARINE OBSERVATIONS...

STATION/POSITION TIME  SKY/WX   TEMP    WIND        PRES    VSBY  WAVE   SWELL
                                AIR SEA DIR/SP/G                  HT/PER HT/PER
                 (UTC)          (F)     (DEG/KT/KT) (MB)    (MI)  (FT/S) (FT/S)
PORT ARANSAS     2300            46 62  340/ 21/ 25 1029.7R
BUOY 90 E PORT A 2250            58 76   20/ 27/ 35 1025.4R        13/ 8   3/14
BUOY 45 SE BAFFI 2250            59 76   10/ 29/ 37 1025.1R        13/ 9
BUOY 200 E PT IS 2250            74 77   40/ 25/ 31 1018.5R         9/ 7   2/14
BUOY 15 E GALVES 2250            52 65   10/ 23/ 29 1027.6R         6/ 6
$$




USA.gov is the U.S. government's official web portal to all federal, state and local government web resources and services.